Time,TemperatureF,DewpointF,PressureIn,WindDirection,WindDirectionDegrees,WindSpeedMPH,WindSpeedGustMPH,Humidity,HourlyPrecipIn,Conditions,Clouds,dailyrainin,SoftwareType,DateUTC
2013-02-22 00:05:00,20.2,15.0,30.19,NNE,27,7.0,7.0,80,0.00,,,0.00,Wunderground v.1.15,2013-02-22 06:05:00,
2013-02-22 00:10:00,20.2,15.0,30.19,NE,42,8.0,8.0,80,0.00,,,0.00,Wunderground v.1.15,2013-02-22 06:10:00,
2013-02-22 00:20:00,20.3,15.4,30.19,NE,35,8.0,11.0,81,0.00,,,0.00,Wunderground v.1.15,2013-02-22 06:20:00,
2013-02-22 00:30:00,20.4,15.8,30.18,NE,52,8.0,8.0,82,0.00,,,0.00,Wunderground v.1.15,2013-02-22 06:30:00,
2013-02-22 00:40:00,20.4,15.8,30.18,NE,36,9.0,12.0,82,0.00,,,0.00,Wunderground v.1.15,2013-02-22 06:40:00,
2013-02-22 00:45:00,20.4,16.1,30.18,ENE,64,8.0,12.0,83,0.00,,,0.00,Wunderground v.1.15,2013-02-22 06:45:00,
2013-02-22 00:55:00,20.3,16.2,30.17,NE,54,8.0,8.0,84,0.00,,,0.00,Wunderground v.1.15,2013-02-22 06:55:00,
2013-02-22 01:00:00,20.2,16.4,30.17,ENE,62,8.0,8.0,85,0.00,,,0.00,Wunderground v.1.15,2013-02-22 07:00:00,
2013-02-22 01:05:00,20.1,16.3,30.16,NE,47,8.0,9.0,85,0.00,,,0.00,Wunderground v.1.15,2013-02-22 07:05:00,
2013-02-22 01:15:00,20.0,16.8,30.16,NE,51,8.0,9.0,87,0.00,,,0.00,Wunderground v.1.15,2013-02-22 07:15:00,
2013-02-22 01:20:00,20.0,16.8,30.16,ENE,61,9.0,10.0,87,0.00,,,0.00,Wunderground v.1.15,2013-02-22 07:20:00,
2013-02-22 01:30:00,20.1,16.9,30.16,ENE,57,8.0,10.0,87,0.00,,,0.00,Wunderground v.1.15,2013-02-22 07:30:00,
2013-02-22 01:35:00,20.0,17.0,30.16,ENE,58,8.0,10.0,88,0.00,,,0.00,Wunderground v.1.15,2013-02-22 07:35:00,
2013-02-22 01:45:00,19.9,17.2,30.15,ENE,65,8.0,9.0,89,0.00,,,0.00,Wunderground v.1.15,2013-02-22 07:45:00,
2013-02-22 01:50:00,19.8,17.3,30.15,ENE,62,8.0,8.0,90,0.00,,,0.00,Wunderground v.1.15,2013-02-22 07:50:00,
2013-02-22 02:00:00,19.7,17.2,30.15,NNE,26,7.0,7.0,90,0.00,,,0.00,Wunderground v.1.15,2013-02-22 08:00:00,
2013-02-22 02:05:00,19.6,17.4,30.15,NE,54,7.0,7.0,91,0.00,,,0.00,Wunderground v.1.15,2013-02-22 08:05:00,
2013-02-22 02:15:00,19.6,17.4,30.14,ENE,66,6.0,8.0,91,0.00,,,0.00,Wunderground v.1.15,2013-02-22 08:15:00,
2013-02-22 02:25:00,19.6,17.4,30.14,ENE,66,6.0,9.0,91,0.00,,,0.00,Wunderground v.1.15,2013-02-22 08:25:00,
2013-02-22 02:35:00,19.5,17.3,30.14,NE,47,5.0,6.0,91,0.00,,,0.00,Wunderground v.1.15,2013-02-22 08:35:00,
2013-02-22 02:45:00,19.5,17.3,30.13,NE,48,5.0,8.0,91,0.00,,,0.00,Wunderground v.1.15,2013-02-22 08:45:00,
2013-02-22 02:50:00,19.5,17.6,30.13,ENE,64,5.0,7.0,92,0.00,,,0.00,Wunderground v.1.15,2013-02-22 08:50:00,
2013-02-22 03:00:00,19.5,17.6,30.12,ENE,59,5.0,5.0,92,0.00,,,0.00,Wunderground v.1.15,2013-02-22 09:00:00,
2013-02-22 03:05:00,19.5,17.6,30.12,NE,47,5.0,5.0,92,0.00,,,0.01,Wunderground v.1.15,2013-02-22 09:05:00,
2013-02-22 03:15:00,19.5,17.6,30.12,NE,44,5.0,7.0,92,0.00,,,0.01,Wunderground v.1.15,2013-02-22 09:15:00,
2013-02-22 03:25:00,19.5,17.6,30.12,ENE,68,4.0,5.0,92,0.00,,,0.01,Wunderground v.1.15,2013-02-22 09:25:00,
2013-02-22 03:35:00,19.5,17.6,30.11,NNE,12,5.0,5.0,92,0.00,,,0.01,Wunderground v.1.15,2013-02-22 09:35:00,
2013-02-22 03:45:00,19.5,17.6,30.11,NE,35,5.0,7.0,92,0.00,,,0.01,Wunderground v.1.15,2013-02-22 09:45:00,
2013-02-22 03:50:00,19.5,17.6,30.11,NNE,31,5.0,5.0,92,0.00,,,0.01,Wunderground v.1.15,2013-02-22 09:50:00,
2013-02-22 04:00:00,19.5,17.6,30.10,NE,39,5.0,5.0,92,0.00,,,0.01,Wunderground v.1.15,2013-02-22 10:00:00,
2013-02-22 04:05:00,19.5,17.6,30.10,NNE,31,5.0,6.0,92,0.00,,,0.02,Wunderground v.1.15,2013-02-22 10:05:00,
2013-02-22 04:15:00,19.5,17.6,30.09,NNE,21,5.0,5.0,92,0.00,,,0.02,Wunderground v.1.15,2013-02-22 10:15:00,
2013-02-22 04:25:00,19.6,17.7,30.09,NE,39,6.0,6.0,92,0.00,,,0.02,Wunderground v.1.15,2013-02-22 10:25:00,
2013-02-22 04:35:00,19.5,17.6,30.09,North,10,6.0,9.0,92,0.00,,,0.02,Wunderground v.1.15,2013-02-22 10:35:00,
2013-02-22 04:45:00,19.5,17.6,30.09,NE,37,6.0,6.0,92,0.00,,,0.02,Wunderground v.1.15,2013-02-22 10:45:00,
2013-02-22 04:50:00,19.6,17.7,30.09,NNE,20,6.0,8.0,92,0.00,,,0.02,Wunderground v.1.15,2013-02-22 10:50:00,
2013-02-22 05:00:00,19.6,17.7,30.09,ENE,60,6.0,6.0,92,0.00,,,0.02,Wunderground v.1.15,2013-02-22 11:00:00,
2013-02-22 05:05:00,19.6,17.7,30.09,NNE,31,6.0,6.0,92,0.00,,,0.02,Wunderground v.1.15,2013-02-22 11:05:00,
2013-02-22 05:15:00,19.6,17.7,30.09,NNE,23,6.0,6.0,92,0.00,,,0.02,Wunderground v.1.15,2013-02-22 11:15:00,
2013-02-22 05:25:00,19.6,17.7,30.09,NNE,12,6.0,6.0,92,0.00,,,0.02,Wunderground v.1.15,2013-02-22 11:25:00,
2013-02-22 05:35:00,19.5,17.6,30.09,NE,51,6.0,8.0,92,0.00,,,0.02,Wunderground v.1.15,2013-02-22 11:35:00,
2013-02-22 05:40:00,19.5,17.6,30.08,NNE,32,6.0,7.0,92,0.00,,,0.02,Wunderground v.1.15,2013-02-22 11:40:00,
2013-02-22 05:50:00,19.5,17.6,30.08,North,354,5.0,5.0,92,0.00,,,0.02,Wunderground v.1.15,2013-02-22 11:50:00,
2013-02-22 05:55:00,19.5,17.6,30.08,NNE,22,6.0,6.0,92,0.00,,,0.02,Wunderground v.1.15,2013-02-22 11:55:00,
2013-02-22 06:05:00,19.4,17.5,30.08,NE,46,6.0,8.0,92,0.00,,,0.02,Wunderground v.1.15,2013-02-22 12:05:00,
2013-02-22 06:15:00,19.4,17.5,30.08,NE,37,5.0,6.0,92,0.00,,,0.02,Wunderground v.1.15,2013-02-22 12:15:00,
2013-02-22 06:25:00,19.4,17.5,30.07,NNE,18,5.0,7.0,92,0.00,,,0.02,Wunderground v.1.15,2013-02-22 12:25:00,
2013-02-22 06:30:00,19.4,17.5,30.07,NNE,20,5.0,6.0,92,0.00,,,0.02,Wunderground v.1.15,2013-02-22 12:30:00,
2013-02-22 06:40:00,19.4,17.5,30.07,NNE,14,6.0,9.0,92,0.00,,,0.02,Wunderground v.1.15,2013-02-22 12:40:00,
2013-02-22 06:50:00,19.5,17.6,30.07,NE,36,6.0,7.0,92,0.00,,,0.02,Wunderground v.1.15,2013-02-22 12:50:00,
2013-02-22 06:55:00,19.5,17.6,30.07,NE,50,6.0,7.0,92,0.00,,,0.02,Wunderground v.1.15,2013-02-22 12:55:00,
2013-02-22 07:05:00,19.6,17.7,30.06,NE,43,6.0,6.0,92,0.00,,,0.02,Wunderground v.1.15,2013-02-22 13:05:00,
2013-02-22 07:15:00,19.7,17.8,30.07,NNE,27,6.0,9.0,92,0.00,,,0.02,Wunderground v.1.15,2013-02-22 13:15:00,
2013-02-22 07:25:00,19.7,17.8,30.06,NNE,33,6.0,8.0,92,0.00,,,0.02,Wunderground v.1.15,2013-02-22 13:25:00,
2013-02-22 07:35:00,19.8,17.9,30.06,NE,35,7.0,7.0,92,0.00,,,0.02,Wunderground v.1.15,2013-02-22 13:35:00,
2013-02-22 07:40:00,19.7,17.8,30.06,NE,39,6.0,9.0,92,0.00,,,0.02,Wunderground v.1.15,2013-02-22 13:40:00,
2013-02-22 07:50:00,19.7,17.8,30.06,NNE,31,6.0,6.0,92,0.00,,,0.02,Wunderground v.1.15,2013-02-22 13:50:00,
2013-02-22 08:00:00,19.9,18.0,30.06,NNE,12,7.0,7.0,92,0.00,,,0.02,Wunderground v.1.15,2013-02-22 14:00:00,
2013-02-22 08:05:00,19.9,18.0,30.06,NE,41,7.0,7.0,92,0.00,,,0.02,Wunderground v.1.15,2013-02-22 14:05:00,
2013-02-22 08:15:00,20.0,18.1,30.06,NNE,21,7.0,9.0,92,0.00,,,0.02,Wunderground v.1.15,2013-02-22 14:15:00,
2013-02-22 08:20:00,20.2,18.2,30.05,ENE,62,7.0,7.0,92,0.00,,,0.02,Wunderground v.1.15,2013-02-22 14:20:00,
2013-02-22 08:30:00,20.2,18.2,30.05,North,359,6.0,11.0,92,0.00,,,0.02,Wunderground v.1.15,2013-02-22 14:30:00,
2013-02-22 08:40:00,20.4,18.4,30.05,ENE,59,7.0,7.0,92,0.00,,,0.03,Wunderground v.1.15,2013-02-22 14:40:00,
2013-02-22 08:50:00,20.9,18.7,30.05,NE,48,7.0,7.0,91,0.00,,,0.03,Wunderground v.1.15,2013-02-22 14:50:00,
2013-02-22 08:55:00,21.0,18.8,30.05,NE,35,6.0,7.0,91,0.00,,,0.03,Wunderground v.1.15,2013-02-22 14:55:00,
2013-02-22 09:05:00,20.9,18.7,30.05,NNE,31,6.0,7.0,91,0.00,,,0.03,Wunderground v.1.15,2013-02-22 15:05:00,
2013-02-22 09:15:00,20.8,18.6,30.05,North,354,7.0,8.0,91,0.00,,,0.03,Wunderground v.1.15,2013-02-22 15:15:00,
2013-02-22 09:20:00,20.9,18.4,30.05,NE,48,7.0,8.0,90,0.00,,,0.03,Wunderground v.1.15,2013-02-22 15:20:00,
2013-02-22 09:30:00,21.0,18.5,30.05,NE,44,6.0,7.0,90,0.00,,,0.03,Wunderground v.1.15,2013-02-22 15:30:00,
2013-02-22 09:40:00,21.2,19.0,30.05,NE,41,7.0,10.0,91,0.00,,,0.03,Wunderground v.1.15,2013-02-22 15:40:00,
2013-02-22 09:50:00,21.4,18.9,30.04,NNE,23,6.0,7.0,90,0.00,,,0.03,Wunderground v.1.15,2013-02-22 15:50:00,
2013-02-22 10:00:00,21.7,19.2,30.04,NE,36,6.0,7.0,90,0.00,,,0.03,Wunderground v.1.15,2013-02-22 16:00:00,
2013-02-22 10:05:00,21.8,19.1,30.04,NNE,18,7.0,10.0,89,0.00,,,0.03,Wunderground v.1.15,2013-02-22 16:05:00,
2013-02-22 10:15:00,22.3,19.6,30.04,NNE,30,6.0,8.0,89,0.00,,,0.03,Wunderground v.1.15,2013-02-22 16:15:00,
2013-02-22 10:25:00,22.6,20.1,30.04,NNE,33,7.0,8.0,90,0.00,,,0.03,Wunderground v.1.15,2013-02-22 16:25:00,
2013-02-22 10:30:00,22.4,19.6,30.04,ENE,60,6.0,6.0,89,0.00,,,0.03,Wunderground v.1.15,2013-02-22 16:30:00,
2013-02-22 10:40:00,22.6,19.6,30.03,North,354,6.0,7.0,88,0.00,,,0.03,Wunderground v.1.15,2013-02-22 16:40:00,
2013-02-22 10:45:00,22.5,19.5,30.03,NE,35,7.0,7.0,88,0.00,,,0.03,Wunderground v.1.15,2013-02-22 16:45:00,
2013-02-22 10:54:00,23.1,20.1,30.03,NNE,31,7.0,7.0,88,0.00,,,0.03,Wunderground v.1.15,2013-02-22 16:54:00,
2013-02-22 11:00:00,23.1,20.1,30.03,NE,45,7.0,8.0,88,0.00,,,0.03,Wunderground v.1.15,2013-02-22 17:00:00,
2013-02-22 11:05:00,23.2,20.4,30.03,North,4,7.0,8.0,89,0.00,,,0.03,Wunderground v.1.15,2013-02-22 17:05:00,
2013-02-22 11:15:00,23.8,20.8,30.03,NE,35,7.0,7.0,88,0.00,,,0.03,Wunderground v.1.15,2013-02-22 17:15:00,
2013-02-22 11:24:00,23.7,20.7,30.03,NE,35,6.0,9.0,88,0.00,,,0.03,Wunderground v.1.15,2013-02-22 17:24:00,
2013-02-22 11:30:00,23.3,20.0,30.03,North,359,7.0,8.0,87,0.00,,,0.03,Wunderground v.1.15,2013-02-22 17:30:00,
2013-02-22 11:40:00,23.4,20.4,30.02,North,4,6.0,6.0,88,0.00,,,0.03,Wunderground v.1.15,2013-02-22 17:40:00,
2013-02-22 11:50:00,23.3,20.0,30.02,NE,41,7.0,9.0,87,0.00,,,0.03,Wunderground v.1.15,2013-02-22 17:50:00,
2013-02-22 12:00:00,23.8,20.5,30.02,North,4,6.0,6.0,87,0.00,,,0.03,Wunderground v.1.15,2013-02-22 18:00:00,
2013-02-22 12:05:00,23.9,20.6,30.02,NNE,26,5.0,6.0,87,0.00,,,0.03,Wunderground v.1.15,2013-02-22 18:05:00,
2013-02-22 12:14:00,23.7,20.4,30.02,NNE,32,6.0,6.0,87,0.00,,,0.03,Wunderground v.1.15,2013-02-22 18:14:00,
2013-02-22 12:20:00,23.8,20.2,30.02,NNE,13,6.0,6.0,86,0.00,,,0.03,Wunderground v.1.15,2013-02-22 18:20:00,
2013-02-22 12:30:00,24.2,20.9,30.02,NNE,21,6.0,6.0,87,0.00,,,0.03,Wunderground v.1.15,2013-02-22 18:30:00,
2013-02-22 12:40:00,24.5,20.9,30.01,NNW,332,5.0,5.0,86,0.00,,,0.03,Wunderground v.1.15,2013-02-22 18:40:00,
2013-02-22 12:50:00,24.8,21.2,30.01,NE,51,5.0,5.0,86,0.00,,,0.03,Wunderground v.1.15,2013-02-22 18:50:00,
2013-02-22 13:00:00,24.9,21.0,30.01,NNE,31,5.0,5.0,85,0.00,,,0.03,Wunderground v.1.15,2013-02-22 19:00:00,
2013-02-22 13:05:00,24.7,20.8,30.00,North,4,5.0,5.0,85,0.00,,,0.03,Wunderground v.1.15,2013-02-22 19:05:00,
2013-02-22 13:15:00,24.9,20.8,30.01,NNE,15,3.0,4.0,84,0.00,,,0.03,Wunderground v.1.15,2013-02-22 19:15:00,
2013-02-22 13:25:00,24.7,20.8,30.00,North,350,3.0,3.0,85,0.00,,,0.03,Wunderground v.1.15,2013-02-22 19:25:00,
2013-02-22 13:35:00,25.5,21.1,30.00,North,4,3.0,4.0,83,0.00,,,0.03,Wunderground v.1.15,2013-02-22 19:35:00,
2013-02-22 13:45:00,25.2,20.8,30.00,NNE,19,4.0,6.0,83,0.00,,,0.03,Wunderground v.1.15,2013-02-22 19:45:00,
2013-02-22 13:50:00,25.0,20.8,30.00,North,11,4.0,5.0,84,0.00,,,0.03,Wunderground v.1.15,2013-02-22 19:50:00,
2013-02-22 14:00:00,24.9,20.5,30.00,North,359,4.0,4.0,83,0.00,,,0.03,Wunderground v.1.15,2013-02-22 20:00:00,
2013-02-22 14:05:00,24.9,20.5,29.99,NNE,22,3.0,4.0,83,0.00,,,0.03,Wunderground v.1.15,2013-02-22 20:05:00,
2013-02-22 14:15:00,24.9,20.5,29.99,NE,42,3.0,5.0,83,0.00,,,0.03,Wunderground v.1.15,2013-02-22 20:15:00,
2013-02-22 14:25:00,25.3,20.9,30.00,NNE,22,3.0,3.0,83,0.00,,,0.03,Wunderground v.1.15,2013-02-22 20:25:00,
2013-02-22 14:35:00,25.5,21.3,30.00,NNE,17,2.0,3.0,84,0.00,,,0.03,Wunderground v.1.15,2013-02-22 20:35:00,
2013-02-22 14:45:00,25.6,21.4,30.00,NW,318,2.0,3.0,84,0.00,,,0.03,Wunderground v.1.15,2013-02-22 20:45:00,
2013-02-22 14:50:00,25.8,21.9,30.00,NW,319,2.0,2.0,85,0.00,,,0.03,Wunderground v.1.15,2013-02-22 20:50:00,
2013-02-22 15:00:00,25.6,21.4,30.00,WNW,293,2.0,2.0,84,0.00,,,0.03,Wunderground v.1.15,2013-02-22 21:00:00,
2013-02-22 15:05:00,25.2,21.0,30.00,WNW,291,3.0,3.0,84,0.00,,,0.03,Wunderground v.1.15,2013-02-22 21:05:00,
2013-02-22 15:15:00,25.1,21.2,30.00,WNW,289,3.0,4.0,85,0.00,,,0.03,Wunderground v.1.15,2013-02-22 21:15:00,
2013-02-22 15:25:00,24.9,20.8,30.00,WNW,289,5.0,6.0,84,0.00,,,0.03,Wunderground v.1.15,2013-02-22 21:25:00,
2013-02-22 15:35:00,24.8,20.7,30.00,WNW,286,6.0,7.0,84,0.00,,,0.03,Wunderground v.1.15,2013-02-22 21:35:00,
2013-02-22 15:40:00,24.8,20.7,30.00,WNW,295,6.0,6.0,84,0.00,,,0.03,Wunderground v.1.15,2013-02-22 21:40:00,
2013-02-22 15:50:00,24.7,20.8,30.00,West,272,5.0,7.0,85,0.00,,,0.03,Wunderground v.1.15,2013-02-22 21:50:00,
2013-02-22 16:00:00,24.6,20.7,30.00,WNW,293,5.0,8.0,85,0.00,,,0.03,Wunderground v.1.15,2013-02-22 22:00:00,
2013-02-22 16:05:00,24.4,20.8,30.00,West,260,5.0,9.0,86,0.00,,,0.03,Wunderground v.1.15,2013-02-22 22:05:00,
2013-02-22 16:15:00,24.3,21.0,30.01,West,273,5.0,7.0,87,0.00,,,0.03,Wunderground v.1.15,2013-02-22 22:15:00,
2013-02-22 16:25:00,24.0,20.7,30.01,NW,305,6.0,7.0,87,0.00,,,0.03,Wunderground v.1.15,2013-02-22 22:25:00,
2013-02-22 16:35:00,23.9,20.6,30.01,West,263,7.0,7.0,87,0.00,,,0.03,Wunderground v.1.15,2013-02-22 22:35:00,
2013-02-22 16:45:00,24.0,21.0,30.01,NW,321,5.0,6.0,88,0.00,,,0.03,Wunderground v.1.15,2013-02-22 22:45:00,
2013-02-22 16:55:00,24.0,21.0,30.01,WNW,288,6.0,6.0,88,0.00,,,0.03,Wunderground v.1.15,2013-02-22 22:55:00,
2013-02-22 17:05:00,24.0,21.0,30.01,WNW,302,6.0,6.0,88,0.00,,,0.03,Wunderground v.1.15,2013-02-22 23:05:00,
2013-02-22 17:15:00,23.8,20.8,30.02,NW,311,6.0,6.0,88,0.00,,,0.03,Wunderground v.1.15,2013-02-22 23:15:00,
2013-02-22 17:25:00,23.8,21.0,30.02,WNW,300,5.0,6.0,89,0.00,,,0.03,Wunderground v.1.15,2013-02-22 23:25:00,
2013-02-22 17:35:00,23.7,20.9,30.02,WNW,302,4.0,5.0,89,0.00,,,0.03,Wunderground v.1.15,2013-02-22 23:35:00,
2013-02-22 17:40:00,23.6,20.8,30.02,NW,305,5.0,6.0,89,0.00,,,0.03,Wunderground v.1.15,2013-02-22 23:40:00,
2013-02-22 17:50:00,23.4,20.9,30.02,WNW,289,5.0,5.0,90,0.00,,,0.03,Wunderground v.1.15,2013-02-22 23:50:00,
2013-02-22 18:00:00,23.3,20.8,30.02,NW,322,4.0,4.0,90,0.00,,,0.03,Wunderground v.1.15,2013-02-23 00:00:00,
2013-02-22 18:05:00,23.3,20.8,30.02,NNW,334,3.0,5.0,90,0.00,,,0.03,Wunderground v.1.15,2013-02-23 00:05:00,
2013-02-22 18:15:00,23.2,20.7,30.02,WNW,299,4.0,4.0,90,0.00,,,0.03,Wunderground v.1.15,2013-02-23 00:15:00,
2013-02-22 18:25:00,23.1,20.9,30.02,NNW,331,3.0,3.0,91,0.00,,,0.03,Wunderground v.1.15,2013-02-23 00:25:00,
2013-02-22 18:35:00,23.0,20.8,30.02,NNW,341,2.0,5.0,91,0.00,,,0.03,Wunderground v.1.15,2013-02-23 00:35:00,
2013-02-22 18:45:00,23.0,20.8,30.02,WNW,289,3.0,3.0,91,0.00,,,0.03,Wunderground v.1.15,2013-02-23 00:45:00,
2013-02-22 18:50:00,22.9,20.7,30.02,NW,319,2.0,2.0,91,0.00,,,0.03,Wunderground v.1.15,2013-02-23 00:50:00,
2013-02-22 19:00:00,22.9,20.7,30.02,NW,305,2.0,3.0,91,0.00,,,0.03,Wunderground v.1.15,2013-02-23 01:00:00,
2013-02-22 19:05:00,22.8,20.6,30.02,NNW,328,2.0,3.0,91,0.00,,,0.03,Wunderground v.1.15,2013-02-23 01:05:00,
2013-02-22 19:15:00,22.6,20.1,30.02,NW,310,2.0,4.0,90,0.00,,,0.03,Wunderground v.1.15,2013-02-23 01:15:00,
2013-02-22 19:20:00,22.5,20.3,30.02,WNW,296,2.0,3.0,91,0.00,,,0.03,Wunderground v.1.15,2013-02-23 01:20:00,
2013-02-22 19:29:00,22.3,20.1,30.02,WNW,302,3.0,3.0,91,0.00,,,0.03,Wunderground v.1.15,2013-02-23 01:29:00,
2013-02-22 19:35:00,22.3,20.1,30.02,North,359,2.0,3.0,91,0.00,,,0.03,Wunderground v.1.15,2013-02-23 01:35:00,
2013-02-22 19:45:00,22.3,20.1,30.01,WNW,300,1.0,2.0,91,0.00,,,0.03,Wunderground v.1.15,2013-02-23 01:45:00,
2013-02-22 19:55:00,22.3,20.1,30.01,NW,318,1.0,1.0,91,0.00,,,0.03,Wunderground v.1.15,2013-02-23 01:55:00,
2013-02-22 20:00:00,22.3,20.1,30.01,NW,324,1.0,1.0,91,0.00,,,0.03,Wunderground v.1.15,2013-02-23 02:00:00,
2013-02-22 20:05:00,22.3,20.3,30.01,NW,312,1.0,1.0,92,0.00,,,0.03,Wunderground v.1.15,2013-02-23 02:05:00,
2013-02-22 20:15:00,22.2,20.0,30.01,NNW,348,1.0,4.0,91,0.00,,,0.03,Wunderground v.1.15,2013-02-23 02:15:00,
2013-02-22 20:25:00,22.3,20.1,30.00,North,354,2.0,2.0,91,0.00,,,0.03,Wunderground v.1.15,2013-02-23 02:25:00,
2013-02-22 20:30:00,22.4,20.2,30.00,NW,321,2.0,2.0,91,0.00,,,0.03,Wunderground v.1.15,2013-02-23 02:30:00,
2013-02-22 20:40:00,22.5,20.3,30.00,NW,323,1.0,1.0,91,0.00,,,0.03,Wunderground v.1.15,2013-02-23 02:40:00,
2013-02-22 20:45:00,22.4,20.2,30.00,NW,323,1.0,1.0,91,0.00,,,0.03,Wunderground v.1.15,2013-02-23 02:45:00,
2013-02-22 20:55:00,22.5,20.3,30.00,WNW,303,2.0,2.0,91,0.00,,,0.03,Wunderground v.1.15,2013-02-23 02:55:00,
2013-02-22 21:05:00,22.3,19.8,30.00,WNW,297,2.0,3.0,90,0.00,,,0.03,Wunderground v.1.15,2013-02-23 03:05:00,
2013-02-22 21:15:00,22.3,19.8,30.00,NW,316,2.0,3.0,90,0.00,,,0.03,Wunderground v.1.15,2013-02-23 03:15:00,
2013-02-22 21:25:00,22.2,19.7,30.00,NW,304,2.0,4.0,90,0.00,,,0.03,Wunderground v.1.15,2013-02-23 03:25:00,
2013-02-22 21:30:00,22.0,19.5,30.00,WNW,300,3.0,3.0,90,0.00,,,0.03,Wunderground v.1.15,2013-02-23 03:30:00,
2013-02-22 21:40:00,21.7,19.2,30.00,West,266,4.0,6.0,90,0.00,,,0.03,Wunderground v.1.15,2013-02-23 03:40:00,
2013-02-22 21:45:00,21.5,19.0,30.00,WNW,285,4.0,6.0,90,0.00,,,0.03,Wunderground v.1.15,2013-02-23 03:45:00,
2013-02-22 21:55:00,21.2,19.0,30.00,WNW,296,4.0,7.0,91,0.00,,,0.03,Wunderground v.1.15,2013-02-23 03:55:00,
2013-02-22 22:00:00,21.0,18.5,30.00,WNW,295,4.0,4.0,90,0.00,,,0.03,Wunderground v.1.15,2013-02-23 04:00:00,
2013-02-22 22:05:00,20.8,18.6,30.00,WNW,284,4.0,4.0,91,0.00,,,0.03,Wunderground v.1.15,2013-02-23 04:05:00,
2013-02-22 22:15:00,20.3,17.8,30.00,WNW,289,4.0,5.0,90,0.00,,,0.03,Wunderground v.1.15,2013-02-23 04:15:00,
2013-02-22 22:20:00,20.1,17.9,30.00,West,278,5.0,5.0,91,0.00,,,0.03,Wunderground v.1.15,2013-02-23 04:20:00,
2013-02-22 22:29:00,19.9,17.7,30.00,WNW,291,4.0,4.0,91,0.00,,,0.03,Wunderground v.1.15,2013-02-23 04:29:00,
2013-02-22 22:35:00,19.8,17.6,30.00,WNW,291,4.0,4.0,91,0.00,,,0.03,Wunderground v.1.15,2013-02-23 04:35:00,
2013-02-22 22:45:00,19.8,17.6,30.00,WNW,291,3.0,4.0,91,0.00,,,0.03,Wunderground v.1.15,2013-02-23 04:45:00,
2013-02-22 22:55:00,19.7,17.2,30.00,West,280,3.0,4.0,90,0.00,,,0.03,Wunderground v.1.15,2013-02-23 04:55:00,
2013-02-22 23:00:00,19.6,17.1,30.00,West,270,4.0,4.0,90,0.00,,,0.03,Wunderground v.1.15,2013-02-23 05:00:00,
2013-02-22 23:05:00,19.5,17.0,30.00,WSW,256,4.0,4.0,90,0.00,,,0.03,Wunderground v.1.15,2013-02-23 05:05:00,
2013-02-22 23:15:00,19.0,16.6,30.00,WNW,290,5.0,5.0,90,0.00,,,0.03,Wunderground v.1.15,2013-02-23 05:15:00,
2013-02-22 23:25:00,18.8,16.4,30.00,WNW,293,5.0,5.0,90,0.00,,,0.03,Wunderground v.1.15,2013-02-23 05:25:00,
2013-02-22 23:35:00,18.5,16.1,30.00,WNW,299,4.0,6.0,90,0.00,,,0.03,Wunderground v.1.15,2013-02-23 05:35:00,
2013-02-22 23:45:00,18.0,15.6,30.00,West,276,5.0,5.0,90,0.00,,,0.03,Wunderground v.1.15,2013-02-23 05:45:00,
2013-02-22 23:50:00,17.9,15.5,30.00,West,280,4.0,4.0,90,0.00,,,0.03,Wunderground v.1.15,2013-02-23 05:50:00,
2013-02-22 23:59:00,17.6,15.2,30.00,West,263,4.0,4.0,90,0.00,,,0.00,Wunderground v.1.15,2013-02-23 05:59:00,